Year,Month,Day,Hour,Minute,Value (Times are PST for temperature in C)
2019,05,01,00,00,9.70
2019,05,01,00,01,9.70
2019,05,01,00,02,9.70
2019,05,01,00,03,9.70
2019,05,01,00,04,9.70
2019,05,01,00,05,9.70
2019,05,01,00,06,9.70
2019,05,01,00,07,9.70
2019,05,01,00,08,9.70
2019,05,01,00,09,9.70
2019,05,01,00,10,9.70
2019,05,01,00,11,9.70
2019,05,01,00,12,9.70
2019,05,01,00,13,9.70
2019,05,01,00,14,9.80
2019,05,01,00,15,9.70
2019,05,01,00,16,9.70
2019,05,01,00,17,9.70
2019,05,01,00,18,9.80
2019,05,01,00,19,9.80
2019,05,01,00,20,9.80
2019,05,01,00,21,9.80
2019,05,01,00,22,9.80
2019,05,01,00,23,9.80
2019,05,01,00,24,9.80
2019,05,01,00,25,9.80
2019,05,01,00,26,9.80
2019,05,01,00,27,9.80
2019,05,01,00,28,9.80
2019,05,01,00,29,9.80
2019,05,01,00,30,9.80
2019,05,01,00,31,9.80
2019,05,01,00,32,9.90
2019,05,01,00,33,9.90
2019,05,01,00,34,9.90
2019,05,01,00,35,9.90
2019,05,01,00,36,9.90
2019,05,01,00,37,9.90
2019,05,01,00,38,9.90
2019,05,01,00,39,9.90
2019,05,01,00,40,9.90
2019,05,01,00,41,9.80
2019,05,01,00,42,9.90
2019,05,01,00,43,9.80
2019,05,01,00,44,9.80
2019,05,01,00,45,9.80
2019,05,01,00,46,9.80
2019,05,01,00,47,9.80
2019,05,01,00,48,9.80
2019,05,01,00,49,9.80
2019,05,01,00,50,9.80
2019,05,01,00,51,9.80
2019,05,01,00,52,9.80
2019,05,01,00,53,9.80
2019,05,01,00,54,9.80
2019,05,01,00,55,9.80
2019,05,01,00,56,9.80
2019,05,01,00,57,9.80
2019,05,01,00,58,9.80
2019,05,01,00,59,9.80
2019,05,01,01,00,9.80
2019,05,01,01,01,9.80
2019,05,01,01,02,9.80
2019,05,01,01,03,9.80
2019,05,01,01,04,9.80
2019,05,01,01,05,9.80
2019,05,01,01,06,9.80
2019,05,01,01,07,9.80
2019,05,01,01,08,9.80
2019,05,01,01,09,9.80
2019,05,01,01,10,9.80
2019,05,01,01,11,9.80
2019,05,01,01,12,9.80
2019,05,01,01,13,9.80
2019,05,01,01,14,9.80
2019,05,01,01,15,9.80
2019,05,01,01,16,9.80
2019,05,01,01,17,9.80
2019,05,01,01,18,9.80
2019,05,01,01,19,9.80
2019,05,01,01,20,9.80
2019,05,01,01,21,9.70
2019,05,01,01,22,9.70
2019,05,01,01,23,9.70
2019,05,01,01,24,9.70
2019,05,01,01,25,9.70
2019,05,01,01,26,9.70
2019,05,01,01,27,9.70
2019,05,01,01,28,9.70
2019,05,01,01,29,9.70
2019,05,01,01,30,9.70
2019,05,01,01,31,9.70
2019,05,01,01,32,9.70
2019,05,01,01,33,9.60
2019,05,01,01,34,9.60
2019,05,01,01,35,9.60
2019,05,01,01,36,9.50
2019,05,01,01,37,9.50
2019,05,01,01,38,9.50
2019,05,01,01,39,9.50
2019,05,01,01,40,9.40
2019,05,01,01,41,9.40
2019,05,01,01,42,9.30
2019,05,01,01,43,9.30
2019,05,01,01,44,9.30
2019,05,01,01,45,9.30
2019,05,01,01,46,9.20
2019,05,01,01,47,9.20
2019,05,01,01,48,9.20
2019,05,01,01,49,9.10
2019,05,01,01,50,9.10
2019,05,01,01,51,9.10
2019,05,01,01,52,9.00
2019,05,01,01,53,9.00
2019,05,01,01,54,9.00
2019,05,01,01,55,9.00
2019,05,01,01,56,8.90
2019,05,01,01,57,8.90
2019,05,01,01,58,8.90
2019,05,01,01,59,8.80
2019,05,01,02,00,8.80
2019,05,01,02,01,8.80
2019,05,01,02,02,8.80
2019,05,01,02,03,8.80
2019,05,01,02,04,8.70
2019,05,01,02,05,8.70
2019,05,01,02,06,8.70
2019,05,01,02,07,8.70
2019,05,01,02,08,8.70
2019,05,01,02,09,8.70
2019,05,01,02,10,8.70
2019,05,01,02,11,8.60
2019,05,01,02,12,8.60
2019,05,01,02,13,8.60
2019,05,01,02,14,8.60
2019,05,01,02,15,8.50
2019,05,01,02,16,8.50
2019,05,01,02,17,8.50
2019,05,01,02,18,8.40
2019,05,01,02,19,8.40
2019,05,01,02,20,8.40
2019,05,01,02,21,8.40
2019,05,01,02,22,8.30
2019,05,01,02,23,8.30
2019,05,01,02,24,8.30
2019,05,01,02,25,8.20
2019,05,01,02,26,8.20
2019,05,01,02,27,8.10
2019,05,01,02,28,8.10
2019,05,01,02,29,8.00
2019,05,01,02,30,8.00
2019,05,01,02,31,7.90
2019,05,01,02,32,7.90
2019,05,01,02,33,7.90
2019,05,01,02,34,7.90
2019,05,01,02,35,7.90
2019,05,01,02,36,7.90
2019,05,01,02,37,7.90
2019,05,01,02,38,7.90
2019,05,01,02,39,7.80
2019,05,01,02,40,7.80
2019,05,01,02,41,7.80
2019,05,01,02,42,7.90
2019,05,01,02,43,7.90
2019,05,01,02,44,7.90
2019,05,01,02,45,8.00
2019,05,01,02,46,8.00
2019,05,01,02,47,8.10
2019,05,01,02,48,8.10
2019,05,01,02,49,8.20
2019,05,01,02,50,8.20
2019,05,01,02,51,8.20
2019,05,01,02,52,8.30
2019,05,01,02,53,8.30
2019,05,01,02,54,8.40
2019,05,01,02,55,8.40
2019,05,01,02,56,8.30
2019,05,01,02,57,8.30
2019,05,01,02,58,8.20
2019,05,01,02,59,8.20
2019,05,01,03,00,8.10
2019,05,01,03,01,8.10
2019,05,01,03,02,8.00
2019,05,01,03,03,8.00
2019,05,01,03,04,8.00
2019,05,01,03,05,7.90
2019,05,01,03,06,7.90
2019,05,01,03,07,7.80
2019,05,01,03,08,7.80
2019,05,01,03,09,7.80
2019,05,01,03,10,7.80
2019,05,01,03,11,7.70
2019,05,01,03,12,7.70
2019,05,01,03,13,7.70
2019,05,01,03,14,7.70
2019,05,01,03,15,7.70
2019,05,01,03,16,7.70
2019,05,01,03,17,7.70
2019,05,01,03,18,7.60
2019,05,01,03,19,7.60
2019,05,01,03,20,7.60
2019,05,01,03,21,7.60
2019,05,01,03,22,7.60
2019,05,01,03,23,7.60
2019,05,01,03,24,7.60
2019,05,01,03,25,7.60
2019,05,01,03,26,7.60
2019,05,01,03,27,7.60
2019,05,01,03,28,7.60
2019,05,01,03,29,7.60
2019,05,01,03,30,7.60
2019,05,01,03,31,7.60
2019,05,01,03,32,7.60
2019,05,01,03,33,7.60
2019,05,01,03,34,7.60
2019,05,01,03,35,7.50
2019,05,01,03,36,7.50
2019,05,01,03,37,7.50
2019,05,01,03,38,7.50
2019,05,01,03,39,7.40
2019,05,01,03,40,7.40
2019,05,01,03,41,7.40
2019,05,01,03,42,7.30
2019,05,01,03,43,7.30
2019,05,01,03,44,7.30
2019,05,01,03,45,7.20
2019,05,01,03,46,7.20
2019,05,01,03,47,7.20
2019,05,01,03,48,7.10
2019,05,01,03,49,7.10
2019,05,01,03,50,7.10
2019,05,01,03,51,7.10
2019,05,01,03,52,7.10
2019,05,01,03,53,7.10
2019,05,01,03,54,7.10
2019,05,01,03,55,7.20
2019,05,01,03,56,7.20
2019,05,01,03,57,7.30
2019,05,01,03,58,7.30
2019,05,01,03,59,7.30
2019,05,01,04,00,7.30
2019,05,01,04,01,7.30
2019,05,01,04,02,7.30
2019,05,01,04,03,7.30
2019,05,01,04,04,7.30
2019,05,01,04,05,7.30
2019,05,01,04,06,7.30
2019,05,01,04,07,7.20
2019,05,01,04,08,7.20
2019,05,01,04,09,7.20
2019,05,01,04,10,7.10
2019,05,01,04,11,7.10
2019,05,01,04,12,7.00
2019,05,01,04,13,7.00
2019,05,01,04,14,6.90
2019,05,01,04,15,6.90
2019,05,01,04,16,6.90
2019,05,01,04,17,6.90
2019,05,01,04,18,6.90
2019,05,01,04,19,6.90
2019,05,01,04,20,6.80
2019,05,01,04,21,6.80
2019,05,01,04,22,6.80
2019,05,01,04,23,6.80
2019,05,01,04,24,6.80
2019,05,01,04,25,6.70
2019,05,01,04,26,6.70
2019,05,01,04,27,6.70
2019,05,01,04,28,6.70
2019,05,01,04,29,6.70
2019,05,01,04,30,6.70
2019,05,01,04,31,6.70
2019,05,01,04,32,6.70
2019,05,01,04,33,6.60
2019,05,01,04,34,6.60
2019,05,01,04,35,6.60
2019,05,01,04,36,6.60
2019,05,01,04,37,6.60
2019,05,01,04,38,6.60
2019,05,01,04,39,6.60
2019,05,01,04,40,6.70
2019,05,01,04,41,6.80
2019,05,01,04,42,6.80
2019,05,01,04,43,6.80
2019,05,01,04,44,6.90
2019,05,01,04,45,6.90
2019,05,01,04,46,6.90
2019,05,01,04,47,6.90
2019,05,01,04,48,6.90
2019,05,01,04,49,6.90
2019,05,01,04,50,7.00
2019,05,01,04,51,7.00
2019,05,01,04,52,7.10
2019,05,01,04,53,7.10
2019,05,01,04,54,7.10
2019,05,01,04,55,7.20
2019,05,01,04,56,7.20
2019,05,01,04,57,7.20
2019,05,01,04,58,7.20
2019,05,01,04,59,7.20
2019,05,01,05,00,7.20
2019,05,01,05,01,7.10
2019,05,01,05,02,7.10
2019,05,01,05,03,7.10
2019,05,01,05,04,7.00
2019,05,01,05,05,6.90
2019,05,01,05,06,6.90
2019,05,01,05,07,6.90
2019,05,01,05,08,6.80
2019,05,01,05,09,6.70
2019,05,01,05,10,6.70
2019,05,01,05,11,6.70
2019,05,01,05,12,6.60
2019,05,01,05,13,6.60
2019,05,01,05,14,6.60
2019,05,01,05,15,6.50
2019,05,01,05,16,6.50
2019,05,01,05,17,6.50
2019,05,01,05,18,6.50
2019,05,01,05,19,6.40
2019,05,01,05,20,6.40
2019,05,01,05,21,6.40
2019,05,01,05,22,6.40
2019,05,01,05,23,6.40
2019,05,01,05,24,6.50
2019,05,01,05,25,6.50
2019,05,01,05,26,6.50
2019,05,01,05,27,6.50
2019,05,01,05,28,6.50
2019,05,01,05,29,6.50
2019,05,01,05,30,6.60
2019,05,01,05,31,6.60
2019,05,01,05,32,6.60
2019,05,01,05,33,6.60
2019,05,01,05,34,6.60
2019,05,01,05,35,6.70
2019,05,01,05,36,6.70
2019,05,01,05,37,6.70
2019,05,01,05,38,6.70
2019,05,01,05,39,6.70
2019,05,01,05,40,6.70
2019,05,01,05,41,6.70
2019,05,01,05,42,6.70
2019,05,01,05,43,6.70
2019,05,01,05,44,6.70
2019,05,01,05,45,6.70
2019,05,01,05,46,6.70
2019,05,01,05,47,6.70
2019,05,01,05,48,6.60
2019,05,01,05,49,6.60
2019,05,01,05,50,6.60
2019,05,01,05,51,6.60
2019,05,01,05,52,6.60
2019,05,01,05,53,6.60
2019,05,01,05,54,6.70
2019,05,01,05,55,6.70
2019,05,01,05,56,6.70
2019,05,01,05,57,6.70
2019,05,01,05,58,6.70
2019,05,01,05,59,6.80
2019,05,01,06,00,6.80
2019,05,01,06,01,6.80
2019,05,01,06,02,6.80
2019,05,01,06,03,6.80
2019,05,01,06,04,6.80
2019,05,01,06,05,6.80
2019,05,01,06,06,6.80
2019,05,01,06,07,6.80
2019,05,01,06,08,6.80
2019,05,01,06,09,6.70
2019,05,01,06,10,6.70
2019,05,01,06,11,6.70
2019,05,01,06,12,6.70
2019,05,01,06,13,6.70
2019,05,01,06,14,6.70
2019,05,01,06,15,6.70
2019,05,01,06,16,6.70
2019,05,01,06,17,6.70
2019,05,01,06,18,6.70
2019,05,01,06,19,6.70
2019,05,01,06,20,6.70
2019,05,01,06,21,6.70
2019,05,01,06,22,6.70
2019,05,01,06,23,6.80
2019,05,01,06,24,6.80
2019,05,01,06,25,6.80
2019,05,01,06,26,6.80
2019,05,01,06,27,6.80
2019,05,01,06,28,6.80
2019,05,01,06,29,6.80
2019,05,01,06,30,6.90
2019,05,01,06,31,6.90
2019,05,01,06,32,6.90
2019,05,01,06,33,6.90
2019,05,01,06,34,6.90
2019,05,01,06,35,6.90
2019,05,01,06,36,6.90
2019,05,01,06,37,6.90
2019,05,01,06,38,6.90
2019,05,01,06,39,6.90
2019,05,01,06,40,6.90
2019,05,01,06,41,6.90
2019,05,01,06,42,6.90
2019,05,01,06,43,6.90
2019,05,01,06,44,7.00
2019,05,01,06,45,7.00
2019,05,01,06,46,7.10
2019,05,01,06,47,7.10
2019,05,01,06,48,7.10
2019,05,01,06,49,7.10
2019,05,01,06,50,7.10
2019,05,01,06,51,7.20
2019,05,01,06,52,7.20
2019,05,01,06,53,7.30
2019,05,01,06,54,7.30
2019,05,01,06,55,7.40
2019,05,01,06,56,7.40
2019,05,01,06,57,7.50
2019,05,01,06,58,7.60
2019,05,01,06,59,7.60
2019,05,01,07,00,7.70
2019,05,01,07,01,7.70
2019,05,01,07,02,7.80
2019,05,01,07,03,7.80
2019,05,01,07,04,7.90
2019,05,01,07,05,8.00
2019,05,01,07,06,8.00
2019,05,01,07,07,8.10
2019,05,01,07,08,8.10
2019,05,01,07,09,8.20
2019,05,01,07,10,8.20
2019,05,01,07,11,8.20
2019,05,01,07,12,8.20
2019,05,01,07,13,8.20
2019,05,01,07,14,8.30
2019,05,01,07,15,8.30
2019,05,01,07,16,8.30
2019,05,01,07,17,8.30
2019,05,01,07,18,8.30
2019,05,01,07,19,8.30
2019,05,01,07,20,8.30
2019,05,01,07,21,8.30
2019,05,01,07,22,8.30
2019,05,01,07,23,8.30
2019,05,01,07,24,8.30
2019,05,01,07,25,8.30
2019,05,01,07,26,8.30
2019,05,01,07,27,8.30
2019,05,01,07,28,8.30
2019,05,01,07,29,8.40
2019,05,01,07,30,8.40
2019,05,01,07,31,8.40
2019,05,01,07,32,8.40
2019,05,01,07,33,8.40
2019,05,01,07,34,8.50
2019,05,01,07,35,8.50
2019,05,01,07,36,8.50
2019,05,01,07,37,8.60
2019,05,01,07,38,8.60
2019,05,01,07,39,8.60
2019,05,01,07,40,8.60
2019,05,01,07,41,8.60
2019,05,01,07,42,8.70
2019,05,01,07,43,8.70
2019,05,01,07,44,8.70
2019,05,01,07,45,8.70
2019,05,01,07,46,8.70
2019,05,01,07,47,8.70
2019,05,01,07,48,8.70
2019,05,01,07,49,8.70
2019,05,01,07,50,8.80
2019,05,01,07,51,8.80
2019,05,01,07,52,8.80
2019,05,01,07,53,8.80
2019,05,01,07,54,8.80
2019,05,01,07,55,8.80
2019,05,01,07,56,8.80
2019,05,01,07,57,8.90
2019,05,01,07,58,8.90
2019,05,01,07,59,8.90
2019,05,01,08,00,8.90
2019,05,01,08,01,8.90
2019,05,01,08,02,8.90
2019,05,01,08,03,8.90
2019,05,01,08,04,8.90
2019,05,01,08,05,9.00
2019,05,01,08,06,9.00
2019,05,01,08,07,9.00
2019,05,01,08,08,9.10
2019,05,01,08,09,9.10
2019,05,01,08,10,9.10
2019,05,01,08,11,9.20
2019,05,01,08,12,9.20
2019,05,01,08,13,9.20
2019,05,01,08,14,9.20
2019,05,01,08,15,9.30
2019,05,01,08,16,9.30
2019,05,01,08,17,9.30
2019,05,01,08,18,9.30
2019,05,01,08,19,9.40
2019,05,01,08,20,9.40
2019,05,01,08,21,9.50
2019,05,01,08,22,9.50
2019,05,01,08,23,9.60
2019,05,01,08,24,9.60
2019,05,01,08,25,9.60
2019,05,01,08,26,9.70
2019,05,01,08,27,9.70
2019,05,01,08,28,9.80
2019,05,01,08,29,9.80
2019,05,01,08,30,9.80
2019,05,01,08,31,9.80
2019,05,01,08,32,9.80
2019,05,01,08,33,9.90
2019,05,01,08,34,9.90
2019,05,01,08,35,9.90
2019,05,01,08,36,9.90
2019,05,01,08,37,9.90
2019,05,01,08,38,9.90
2019,05,01,08,39,9.90
2019,05,01,08,40,9.90
2019,05,01,08,41,9.90
2019,05,01,08,42,9.90
2019,05,01,08,43,9.90
2019,05,01,08,44,9.90
2019,05,01,08,45,9.90
2019,05,01,08,46,9.90
2019,05,01,08,47,10.00
2019,05,01,08,48,10.00
2019,05,01,08,49,10.00
2019,05,01,08,50,10.00
2019,05,01,08,51,10.00
2019,05,01,08,52,10.10
2019,05,01,08,53,10.10
2019,05,01,08,54,10.10
2019,05,01,08,55,10.10
2019,05,01,08,56,10.20
2019,05,01,08,57,10.20
2019,05,01,08,58,10.20
2019,05,01,08,59,10.20
2019,05,01,09,00,10.20
2019,05,01,09,01,10.30
2019,05,01,09,02,10.30
2019,05,01,09,03,10.30
2019,05,01,09,04,10.40
2019,05,01,09,05,10.40
2019,05,01,09,06,10.40
2019,05,01,09,07,10.40
2019,05,01,09,08,10.40
2019,05,01,09,09,10.40
2019,05,01,09,10,10.40
2019,05,01,09,11,10.50
2019,05,01,09,12,10.50
2019,05,01,09,13,10.50
2019,05,01,09,14,10.50
2019,05,01,09,15,10.50
2019,05,01,09,16,10.50
2019,05,01,09,17,10.60
2019,05,01,09,18,10.60
2019,05,01,09,19,10.60
2019,05,01,09,20,10.60
2019,05,01,09,21,10.60
2019,05,01,09,22,10.60
2019,05,01,09,23,10.70
2019,05,01,09,24,10.70
2019,05,01,09,25,10.70
2019,05,01,09,26,10.70
2019,05,01,09,27,10.70
2019,05,01,09,28,10.70
2019,05,01,09,29,10.70
2019,05,01,09,30,10.70
2019,05,01,09,31,10.70
2019,05,01,09,32,10.70
2019,05,01,09,33,10.70
2019,05,01,09,34,10.70
2019,05,01,09,35,10.80
2019,05,01,09,36,10.80
2019,05,01,09,37,10.80
2019,05,01,09,38,10.80
2019,05,01,09,39,10.80
2019,05,01,09,40,10.80
2019,05,01,09,41,10.80
2019,05,01,09,42,10.80
2019,05,01,09,43,10.80
2019,05,01,09,44,10.80
2019,05,01,09,45,10.90
2019,05,01,09,46,10.90
2019,05,01,09,47,11.00
2019,05,01,09,48,11.10
2019,05,01,09,49,11.20
2019,05,01,09,50,11.30
2019,05,01,09,51,11.40
2019,05,01,09,52,11.40
2019,05,01,09,53,11.40
2019,05,01,09,54,11.50
2019,05,01,09,55,11.50
2019,05,01,09,56,11.50
2019,05,01,09,57,11.50
2019,05,01,09,58,11.50
2019,05,01,09,59,11.60
2019,05,01,10,00,11.60
2019,05,01,10,01,11.70
2019,05,01,10,02,11.70
2019,05,01,10,03,11.80
2019,05,01,10,04,11.90
2019,05,01,10,05,12.00
2019,05,01,10,06,12.00
2019,05,01,10,07,12.00
2019,05,01,10,08,12.00
2019,05,01,10,09,12.00
2019,05,01,10,10,12.10
2019,05,01,10,11,12.20
2019,05,01,10,12,12.20
2019,05,01,10,13,12.20
2019,05,01,10,14,12.20
2019,05,01,10,15,12.30
2019,05,01,10,16,12.30
2019,05,01,10,17,12.30
2019,05,01,10,18,12.20
2019,05,01,10,19,12.20
2019,05,01,10,20,12.30
2019,05,01,10,21,12.30
2019,05,01,10,22,12.30
2019,05,01,10,23,12.40
2019,05,01,10,24,12.50
2019,05,01,10,25,12.50
2019,05,01,10,26,12.50
2019,05,01,10,27,12.40
2019,05,01,10,28,12.50
2019,05,01,10,29,12.50
2019,05,01,10,30,12.60
2019,05,01,10,31,12.60
2019,05,01,10,32,12.70
2019,05,01,10,33,12.80
2019,05,01,10,34,12.90
2019,05,01,10,35,12.90
2019,05,01,10,36,13.00
2019,05,01,10,37,13.00
2019,05,01,10,38,13.00
2019,05,01,10,39,12.90
2019,05,01,10,40,12.80
2019,05,01,10,41,12.80
2019,05,01,10,42,12.80
2019,05,01,10,43,12.80
2019,05,01,10,44,12.90
2019,05,01,10,45,12.90
2019,05,01,10,46,13.00
2019,05,01,10,47,13.00
2019,05,01,10,48,13.00
2019,05,01,10,49,13.10
2019,05,01,10,50,13.20
2019,05,01,10,51,13.30
2019,05,01,10,52,13.40
2019,05,01,10,53,13.50
2019,05,01,10,54,13.60
2019,05,01,10,55,13.60
2019,05,01,10,56,13.60
2019,05,01,10,57,13.60
2019,05,01,10,58,13.70
2019,05,01,10,59,13.70
2019,05,01,11,00,13.70
2019,05,01,11,01,13.70
2019,05,01,11,02,13.70
2019,05,01,11,03,13.70
2019,05,01,11,04,13.70
2019,05,01,11,05,13.80
2019,05,01,11,06,13.80
2019,05,01,11,07,13.70
2019,05,01,11,08,13.70
2019,05,01,11,09,13.60
2019,05,01,11,10,13.60
2019,05,01,11,11,13.60
2019,05,01,11,12,13.70
2019,05,01,11,13,13.60
2019,05,01,11,14,13.50
2019,05,01,11,15,13.50
2019,05,01,11,16,13.40
2019,05,01,11,17,13.40
2019,05,01,11,18,13.50
2019,05,01,11,19,13.50
2019,05,01,11,20,13.60
2019,05,01,11,21,13.70
2019,05,01,11,22,13.70
2019,05,01,11,23,13.70
2019,05,01,11,24,13.70
2019,05,01,11,25,13.80
2019,05,01,11,26,13.80
2019,05,01,11,27,13.80
2019,05,01,11,28,13.90
2019,05,01,11,29,13.90
2019,05,01,11,30,14.00
2019,05,01,11,31,14.10
2019,05,01,11,32,14.10
2019,05,01,11,33,14.20
2019,05,01,11,34,14.30
2019,05,01,11,35,14.40
2019,05,01,11,36,14.50
2019,05,01,11,37,14.40
2019,05,01,11,38,14.40
2019,05,01,11,39,14.50
2019,05,01,11,40,14.60
2019,05,01,11,41,14.60
2019,05,01,11,42,14.70
2019,05,01,11,43,14.70
2019,05,01,11,44,14.80
2019,05,01,11,45,14.80
2019,05,01,11,46,14.80
2019,05,01,11,47,14.80
2019,05,01,11,48,14.80
2019,05,01,11,49,14.80
2019,05,01,11,50,14.80
2019,05,01,11,51,14.80
2019,05,01,11,52,14.80
2019,05,01,11,53,14.90
2019,05,01,11,54,15.00
2019,05,01,11,55,15.10
2019,05,01,11,56,15.20
2019,05,01,11,57,15.20
2019,05,01,11,58,15.30
2019,05,01,11,59,15.30
2019,05,01,12,00,15.30
2019,05,01,12,01,15.30
2019,05,01,12,02,15.30
2019,05,01,12,03,15.30
2019,05,01,12,04,15.30
2019,05,01,12,05,15.30
2019,05,01,12,06,15.30
2019,05,01,12,07,15.30
2019,05,01,12,08,15.30
2019,05,01,12,09,15.30
2019,05,01,12,10,15.30
2019,05,01,12,11,15.30
2019,05,01,12,12,15.30
2019,05,01,12,13,15.30
2019,05,01,12,14,15.30
2019,05,01,12,15,15.20
2019,05,01,12,16,15.10
2019,05,01,12,17,15.10
2019,05,01,12,18,15.10
2019,05,01,12,19,15.10
2019,05,01,12,20,15.00
2019,05,01,12,21,14.90
2019,05,01,12,22,14.80
2019,05,01,12,23,14.80
2019,05,01,12,24,14.80
2019,05,01,12,25,14.80
2019,05,01,12,26,14.80
2019,05,01,12,27,14.90
2019,05,01,12,28,14.90
2019,05,01,12,29,14.90
2019,05,01,12,30,14.90
2019,05,01,12,31,14.90
2019,05,01,12,32,14.90
2019,05,01,12,33,14.90
2019,05,01,12,34,14.90
2019,05,01,12,35,14.90
2019,05,01,12,36,14.80
2019,05,01,12,37,14.80
2019,05,01,12,38,14.90
2019,05,01,12,39,14.90
2019,05,01,12,40,14.80
2019,05,01,12,41,14.70
2019,05,01,12,42,14.60
2019,05,01,12,43,14.60
2019,05,01,12,44,14.50
2019,05,01,12,45,14.50
2019,05,01,12,46,14.40
2019,05,01,12,47,14.40
2019,05,01,12,48,14.40
2019,05,01,12,49,14.40
2019,05,01,12,50,14.30
2019,05,01,12,51,14.20
2019,05,01,12,52,14.10
2019,05,01,12,53,14.10
2019,05,01,12,54,14.10
2019,05,01,12,55,14.10
2019,05,01,12,56,14.10
2019,05,01,12,57,14.00
2019,05,01,12,58,14.00
2019,05,01,12,59,14.00
2019,05,01,13,00,14.10
2019,05,01,13,01,14.10
2019,05,01,13,02,14.10
2019,05,01,13,03,14.20
2019,05,01,13,04,14.20
2019,05,01,13,05,14.30
2019,05,01,13,06,14.30
2019,05,01,13,07,14.40
2019,05,01,13,08,14.50
2019,05,01,13,09,14.60
2019,05,01,13,10,14.80
2019,05,01,13,11,14.90
2019,05,01,13,12,15.00
2019,05,01,13,13,15.10
2019,05,01,13,14,15.20
2019,05,01,13,15,15.20
2019,05,01,13,16,15.20
2019,05,01,13,17,15.20
2019,05,01,13,18,15.20
2019,05,01,13,19,15.20
2019,05,01,13,20,15.10
2019,05,01,13,21,15.10
2019,05,01,13,22,15.20
2019,05,01,13,23,15.30
2019,05,01,13,24,15.30
2019,05,01,13,25,15.30
2019,05,01,13,26,15.40
2019,05,01,13,27,15.40
2019,05,01,13,28,15.40
2019,05,01,13,29,15.40
2019,05,01,13,30,15.40
2019,05,01,13,31,15.40
2019,05,01,13,32,15.40
2019,05,01,13,33,15.40
2019,05,01,13,34,15.40
2019,05,01,13,35,15.40
2019,05,01,13,36,15.40
2019,05,01,13,37,15.50
2019,05,01,13,38,15.40
2019,05,01,13,39,15.40
2019,05,01,13,40,15.40
2019,05,01,13,41,15.40
2019,05,01,13,42,15.50
2019,05,01,13,43,15.60
2019,05,01,13,44,15.50
2019,05,01,13,45,15.60
2019,05,01,13,46,15.60
2019,05,01,13,47,15.70
2019,05,01,13,48,15.70
2019,05,01,13,49,15.70
2019,05,01,13,50,15.60
2019,05,01,13,51,15.60
2019,05,01,13,52,15.60
2019,05,01,13,53,15.60
2019,05,01,13,54,15.60
2019,05,01,13,55,15.60
2019,05,01,13,56,15.50
2019,05,01,13,57,15.40
2019,05,01,13,58,15.40
2019,05,01,13,59,15.40
2019,05,01,14,00,15.50
2019,05,01,14,01,15.60
2019,05,01,14,02,15.70
2019,05,01,14,03,15.80
2019,05,01,14,04,15.80
2019,05,01,14,05,15.90
2019,05,01,14,06,16.00
2019,05,01,14,07,16.00
2019,05,01,14,08,16.10
2019,05,01,14,09,16.00
2019,05,01,14,10,16.10
2019,05,01,14,11,16.10
2019,05,01,14,12,16.20
2019,05,01,14,13,16.10
2019,05,01,14,14,16.00
2019,05,01,14,15,15.90
2019,05,01,14,16,15.80
2019,05,01,14,17,15.80
2019,05,01,14,18,15.80
2019,05,01,14,19,15.90
2019,05,01,14,20,15.90
2019,05,01,14,21,15.90
2019,05,01,14,22,16.00
2019,05,01,14,23,15.90
2019,05,01,14,24,16.00
2019,05,01,14,25,15.90
2019,05,01,14,26,15.90
2019,05,01,14,27,15.90
2019,05,01,14,28,15.80
2019,05,01,14,29,15.80
2019,05,01,14,30,15.70
2019,05,01,14,31,15.70
2019,05,01,14,32,15.70
2019,05,01,14,33,15.70
2019,05,01,14,34,15.70
2019,05,01,14,35,15.70
2019,05,01,14,36,15.70
2019,05,01,14,37,15.70
2019,05,01,14,38,15.80
2019,05,01,14,39,15.90
2019,05,01,14,40,16.00
2019,05,01,14,41,16.00
2019,05,01,14,42,16.10
2019,05,01,14,43,16.10
2019,05,01,14,44,16.10
2019,05,01,14,45,16.20
2019,05,01,14,46,16.20
2019,05,01,14,47,16.20
2019,05,01,14,48,16.10
2019,05,01,14,49,16.10
2019,05,01,14,50,16.10
2019,05,01,14,51,16.00
2019,05,01,14,52,16.00
2019,05,01,14,53,16.00
2019,05,01,14,54,16.10
2019,05,01,14,55,16.10
2019,05,01,14,56,16.20
2019,05,01,14,57,16.30
2019,05,01,14,58,16.30
2019,05,01,14,59,16.40
2019,05,01,15,00,16.40
2019,05,01,15,01,16.40
2019,05,01,15,02,16.40
2019,05,01,15,03,16.50
2019,05,01,15,04,16.60
2019,05,01,15,05,16.60
2019,05,01,15,06,16.70
2019,05,01,15,07,16.80
2019,05,01,15,08,16.80
2019,05,01,15,09,16.80
2019,05,01,15,10,16.80
2019,05,01,15,11,16.90
2019,05,01,15,12,16.90
2019,05,01,15,13,16.90
2019,05,01,15,14,16.80
2019,05,01,15,15,16.70
2019,05,01,15,16,16.60
2019,05,01,15,17,16.50
2019,05,01,15,18,16.40
2019,05,01,15,19,16.40
2019,05,01,15,20,16.40
2019,05,01,15,21,16.40
2019,05,01,15,22,16.40
2019,05,01,15,23,16.40
2019,05,01,15,24,16.40
2019,05,01,15,25,16.40
2019,05,01,15,26,16.40
2019,05,01,15,27,16.40
2019,05,01,15,28,16.40
2019,05,01,15,29,16.40
2019,05,01,15,30,16.30
2019,05,01,15,31,16.30
2019,05,01,15,32,16.30
2019,05,01,15,33,16.40
2019,05,01,15,34,16.40
2019,05,01,15,35,16.40
2019,05,01,15,36,16.40
2019,05,01,15,37,16.50
2019,05,01,15,38,16.50
2019,05,01,15,39,16.60
2019,05,01,15,40,16.50
2019,05,01,15,41,16.50
2019,05,01,15,42,16.60
2019,05,01,15,43,16.60
2019,05,01,15,44,16.60
2019,05,01,15,45,16.60
2019,05,01,15,46,16.70
2019,05,01,15,47,16.70
2019,05,01,15,48,16.70
2019,05,01,15,49,16.70
2019,05,01,15,50,16.60
2019,05,01,15,51,16.60
2019,05,01,15,52,16.50
2019,05,01,15,53,16.50
2019,05,01,15,54,16.40
2019,05,01,15,55,16.40
2019,05,01,15,56,16.40
2019,05,01,15,57,16.40
2019,05,01,15,58,16.40
2019,05,01,15,59,16.40
2019,05,01,16,00,16.50
2019,05,01,16,01,16.50
2019,05,01,16,02,16.40
2019,05,01,16,03,16.40
2019,05,01,16,04,16.40
2019,05,01,16,05,16.40
2019,05,01,16,06,16.30
2019,05,01,16,07,16.30
2019,05,01,16,08,16.30
2019,05,01,16,09,16.30
2019,05,01,16,10,16.40
2019,05,01,16,11,16.40
2019,05,01,16,12,16.40
2019,05,01,16,13,16.50
2019,05,01,16,14,16.50
2019,05,01,16,15,16.40
2019,05,01,16,16,16.40
2019,05,01,16,17,16.50
2019,05,01,16,18,16.50
2019,05,01,16,19,16.60
2019,05,01,16,20,16.60
2019,05,01,16,21,16.70
2019,05,01,16,22,16.70
2019,05,01,16,23,16.80
2019,05,01,16,24,16.80
2019,05,01,16,25,16.90
2019,05,01,16,26,16.90
2019,05,01,16,27,17.00
2019,05,01,16,28,17.00
2019,05,01,16,29,17.10
2019,05,01,16,30,17.10
2019,05,01,16,31,17.10
2019,05,01,16,32,17.20
2019,05,01,16,33,17.20
2019,05,01,16,34,17.30
2019,05,01,16,35,17.30
2019,05,01,16,36,17.30
2019,05,01,16,37,17.30
2019,05,01,16,38,17.30
2019,05,01,16,39,17.30
2019,05,01,16,40,17.30
2019,05,01,16,41,17.40
2019,05,01,16,42,17.40
2019,05,01,16,43,17.40
2019,05,01,16,44,17.50
2019,05,01,16,45,17.50
2019,05,01,16,46,17.50
2019,05,01,16,47,17.50
2019,05,01,16,48,17.50
2019,05,01,16,49,17.60
2019,05,01,16,50,17.50
2019,05,01,16,51,17.50
2019,05,01,16,52,17.50
2019,05,01,16,53,17.40
2019,05,01,16,54,17.50
2019,05,01,16,55,17.50
2019,05,01,16,56,17.40
2019,05,01,16,57,17.40
2019,05,01,16,58,17.40
2019,05,01,16,59,17.40
2019,05,01,17,00,17.40
2019,05,01,17,01,17.40
2019,05,01,17,02,17.40
2019,05,01,17,03,17.40
2019,05,01,17,04,17.40
2019,05,01,17,05,17.40
2019,05,01,17,06,17.40
2019,05,01,17,07,17.30
2019,05,01,17,08,17.30
2019,05,01,17,09,17.30
2019,05,01,17,10,17.30
2019,05,01,17,11,17.30
2019,05,01,17,12,17.30
2019,05,01,17,13,17.30
2019,05,01,17,14,17.20
2019,05,01,17,15,17.20
2019,05,01,17,16,17.20
2019,05,01,17,17,17.20
2019,05,01,17,18,17.20
2019,05,01,17,19,17.20
2019,05,01,17,20,17.20
2019,05,01,17,21,17.10
2019,05,01,17,22,17.10
2019,05,01,17,23,17.10
2019,05,01,17,24,17.00
2019,05,01,17,25,17.00
2019,05,01,17,26,17.00
2019,05,01,17,27,17.00
2019,05,01,17,28,17.10
2019,05,01,17,29,17.00
2019,05,01,17,30,17.00
2019,05,01,17,31,17.00
2019,05,01,17,32,16.90
2019,05,01,17,33,16.90
2019,05,01,17,34,16.90
2019,05,01,17,35,16.90
2019,05,01,17,36,16.90
2019,05,01,17,37,16.90
2019,05,01,17,38,16.80
2019,05,01,17,39,16.90
2019,05,01,17,40,16.90
2019,05,01,17,41,16.90
2019,05,01,17,42,16.90